Location: Squirrel Cove
(50.1074°N, 124.9139°W)
Time: 11:16:05
(UTC-07:00)

CUBESAT XI-V - Visible Passes

Search period start: 17 May 2022 00:00
Search period end: 27 May 2022 00:00
Orbit: 668 x 690 km, 98.1° (Epoch: 17 May)

Date Brightness Start Highest point End Pass type
(mag) Time Alt. Az. Time Alt. Az. Time Alt. Az.
17 May ? 01:48:34 10° ESE 01:52:26 26° ENE 01:56:19 10° N visible
17 May ? 03:26:52 23° SSW 03:29:29 47° W 03:34:04 10° NNW visible
18 May ? 02:24:24 17° SE 02:27:48 50° ENE 02:32:21 10° N visible
18 May ? 04:02:47 15° SW 04:05:21 23° W 04:09:08 10° NW visible
19 May ? 01:23:39 10° E 01:26:38 17° ENE 01:29:37 10° NNE visible
19 May ? 03:00:20 22° S 03:03:20 81° WSW 03:08:05 10° NNW visible
19 May ? 04:39:56 10° WSW 04:41:24 11° W 04:42:52 10° WNW visible
20 May ? 01:57:52 11° SE 02:01:52 31° ENE 02:05:59 10° N visible
20 May ? 03:36:16 20° SSW 03:39:04 39° W 03:43:29 10° NNW visible
21 May ? 00:59:47 10° ENE 01:00:55 11° NE 01:02:02 10° NE visible
21 May ? 02:33:49 18° SSE 02:37:16 61° ENE 02:41:55 10° N visible
21 May ? 04:12:12 12° SW 04:14:57 19° W 04:18:21 10° NW visible
22 May ? 01:32:39 10° ESE 01:36:01 20° ENE 01:39:23 10° NNE visible
22 May ? 03:09:44 21° S 03:12:51 66° WSW 03:17:33 10° NNW visible
23 May ? 02:07:17 12° SE 02:11:17 36° ENE 02:15:36 10° N visible
23 May ? 03:45:41 17° SSW 03:48:36 32° W 03:52:50 10° NNW visible
24 May ? 01:08:12 10° E 01:10:14 13° NE 01:12:17 10° NNE visible
24 May ? 02:43:13 18° SSE 02:46:43 74° ENE 02:51:26 10° N visible
24 May ? 04:21:39 10° SW 04:24:32 16° W 04:27:27 10° NW visible
25 May ? 01:41:42 10° ESE 01:45:23 23° ENE 01:49:04 10° N visible
25 May ? 03:19:09 19° S 03:22:20 54° W 03:26:59 10° NNW visible
26 May ? 02:16:41 12° SE 02:20:41 44° ENE 02:25:09 10° N visible
26 May ? 03:55:05 14° SW 03:58:08 27° W 04:02:07 10° NW visible
